Probability
0 0 0 0 0 0 0 0 0 0 0 0 0 0 0 0 0 0 0 0 0 0 0 0 0 0 0 0 0 0 0 0 0 0 0 0 0 0 0 0 0 0 0
0 0 0 0 0 0 0 0 0 0 0 0 0 0 0 0 0 0 0 0 0 0 0 0 0 0 0 0 0 0 0 0 0 0 0 0 0 0 0 0 0 0 0
0 0 0 0 0 0 0 0 0 0 0 0 0 0 0 0 0 0 0 0 0 0 0 0 0 0 0 0 0 0 0 0 0 0 0 0 0 0 0 0 0 0 0
0 0 0 0 0 0 0 0 0 0 0 0 0 0 0 0 0 0 0 0 0 0 0 0 0 0 0 0 0 0 0 0 0 0 0 0 0 0 0 0 0 0 0
0 0 0 0 0 0 0 0 0 0 0 0 0 0 0 0 0 0 0 0 0 0 0 0 0 0 0 0 0 0 0 0 0 0 0 0 0 0 0 0 0 0 0
0 0 0 0 0 0 0 0 0 0 0 0 0 0 0 0 0 0 0 0 0 0 0 0 0 0 0 0 0 0 0 0 0 0 0 0 0 0 0 0 0 0 0
0 0 0 0 0 0 0 0 0 0 0 0 0 0 0 0 0 0 0 0 0 0 0 0 0 0 0 0 0 0 0 0 0 0 0 0 0 0 0 0 0 0 0
0 0 0 0 0 0 0 0 0 0 0 0 0 0 0 0 0 0 0 0 0 0 0 0 0 0 0 0 0 0 0 0 0 0 0 0 0 0 0 0 0 0 0
0 0 0 0 0 0 0 0 0 0 0 0 0 0 0 0 0 0 0 0 0 0 0 0 0 0 0 0 0 0 0 0 0 0 0 0 0 0 0 0 0 0 0
0 0 0 0 0 0 0 0 0 0 0 0 0 0 0 0 0 0 0 0 0 0 0 0 0 0 0 0 0 0 0 0 0 0 0 0 0 0 0 0 0 0 0
0 0 0 0 0 0 0 0 0 0 0 0 0 0 0 0 0 0 0 0 0 0 0 0 0 0 0 0 0 0 0 0 0 0 0 0 0 0 0 0 0 0 0
0 0 0 0 0 0 0 0 0 0 0 0 0 0 0 0 0 0 0 0 0 0 0 0 0 0 0 0 0 0 0 0 0 0 0 0 0 0 0 0 0 0 0
0 0 0 0 0 0 0 0 0 0 0 0 0 0 0 0 0 0 0 0 0 0 0 0 0 0 0 0 0 0 0 0 0 0 0 0 0 0 0 0 0 0 0
0 0 0 0 0 0 0 0 0 0 0 0 0 0 0 0 0 0 0 0 0 0 0 0 0 0 0 0 0 0 0 0 0 0 0 0 0 0 0 0 0 0 0
0 0 0 0 0 0 0 0 0 0 0 0 0 0 0 0 0 0 0 0 0 0 0 0 0 0 0 0 0 0 0 0 0 0 0 0 0 0 0 0 0 0 0
0 0 0 0 0 0 0 0 0 0 0 0 0 0 0 0 0 0 0 0 0 0 0 0 0 0 0 0 0 0 0 0 0 0 0 0 0 0 0 0 0 0 0
0 0 0 0 0 0 0 0 0 0 0 0 0 0 0 0 0 0 0 0 0 0 0 0 0 0 0 0 0 0 0 0 0 0 0 0 0 0 0 0 0 0 0
0 0 0 0 0 0 0 0 0 0 0 0 0 0 0 0 0 0 0 0 0 0 0 0 0 0 0 0 0 0 0 0 0 0 0 0 0 0 0 0 0 0 0
0 0 0 0 0 0 0 0 0 0 0 0 0 0 0 0 0 0 0 0 0 0 0 0 0 0 0 0 0 0 0 0 0 0 0 0 0 0 0 0 0 0 0
0 0 0 0 0 0 0 0 0 0 0 0 0 0 0 0 0 0 0 0 0 0 0 0 0 0 0 0 0 0 0 0 0 0 0 0 0 0 0 0 0 0 0
0 0 0 0 0 0 0 0 0 0 0 0 0 0 0 0 0 0 0 0 0 0 0 0 0 0 0 0 0 0 0 0 0 0 0 0 0 0 0 0 0 0 0
0 0 0 0 0 0 0 0 0 0 0 0 0 0 0 0 0 0 0 0 0 0 0 0 0 0 0 0 0 0 0 0 0 0 0 0 0 0 0 0 0 0 0
0 0 0 0 0 0 0 0 0 0 0 0 0 0 0 0 0 0 0 0 0 0 0 0 0 0 0 0 0 0 0 0 0 0 0 0 0 0 0 0 0 0 0
0 0 0 0 0 0 0 0 0 0 0 0 0 0 0 0 0 0 0 0 0 0 0 0 0 0 0 0 0 0 0 0 0 0 0 0 0 0 0 0 0 0 0
0 0 0 0 0 0 0 0 0 0 0 0 0 0 0 0 0 0 0 0 0 0 0 0 0 0 0 0 0 0 0 0 0 0 0 0 0 0 0 0 0 0 0
0 0 0 0 0 0 0 0 0 0 0 0 0 0 0 0 0 0 0 0 0 0 0 0 0 0 0 0 0 0 0 0 0 0 0 0 0 0 0 0 0 0 0
Wind_Speed
3 3 2 2 2 1 1 1 1 2 2 2 2 2 3 3 3 3 3 7 9 10 12 13 13 14 15 15 15 15 15 14 14 14 15 15 16 16 17 18 18 18 19
4 3 3 2 1 1 1 1 0 1 1 1 2 3 3 3 4 4 4 5 8 10 11 13 14 15 15 16 17 17 17 17 16 16 16 16 16 17 18 19 20 20 21
4 4 3 2 2 2 2 1 0 0 1 2 3 3 3 4 4 4 4 3 4 7 10 11 12 14 15 16 17 18 18 19 18 18 18 18 18 18 19 20 20 21 22
5 4 3 3 3 2 2 1 1 1 2 2 3 3 3 4 5 4 3 3 3 3 6 10 12 13 14 15 17 18 19 19 20 20 20 20 20 20 20 20 21 21 22
6 5 4 3 3 3 2 2 1 1 2 2 3 4 4 4 4 3 4 3 3 3 3 7 10 11 13 15 16 18 19 19 20 21 21 21 22 22 22 22 22 22 22
7 5 4 4 4 3 2 2 2 1 1 2 3 4 4 3 2 2 3 2 2 3 3 4 4 6 12 15 17 18 19 20 20 21 22 22 23 24 24 24 24 24 24
7 6 4 4 4 4 4 4 2 2 1 0 2 4 4 2 2 1 1 2 3 3 4 4 4 4 5 12 15 17 19 20 21 22 23 23 24 24 25 26 26 26 27
7 6 6 5 5 4 4 4 3 2 1 1 1 1 4 5 3 2 2 2 3 3 4 5 4 5 4 4 10 18 20 21 23 23 23 24 24 25 26 26 27 27 28
8 7 7 6 5 5 4 5 5 4 2 1 1 1 0 2 4 3 2 2 2 3 3 4 5 5 5 5 6 13 20 21 22 23 24 24 25 26 26 27 27 28 28
7 7 6 6 5 4 4 4 4 3 3 2 1 1 1 1 1 4 3 2 3 3 4 4 4 4 5 5 8 15 20 21 22 23 24 25 26 26 27 28 28 28 29
5 5 6 5 5 4 4 4 4 4 3 3 2 2 1 1 2 2 5 4 4 3 3 3 3 4 6 6 7 14 20 22 23 24 24 25 26 27 27 28 28 29 30
3 4 5 5 5 4 4 4 4 4 3 3 2 2 2 1 1 2 3 4 4 4 3 2 2 4 5 7 10 18 21 23 24 24 24 25 26 26 27 28 28 29 30
3 4 5 5 4 4 4 4 4 4 3 4 3 2 2 1 1 1 2 3 3 3 3 1 2 3 6 6 8 18 18 23 24 24 24 25 25 26 27 27 28 29 29
5 5 6 5 5 5 5 5 5 4 4 4 4 4 3 2 2 1 0 1 3 3 2 3 2 4 6 7 11 18 12 21 23 24 24 25 25 26 26 27 28 29 29
6 7 7 7 6 6 6 6 5 5 5 5 4 4 3 3 2 2 2 1 1 3 4 3 3 4 6 6 12 9 9 18 22 23 24 24 25 25 26 27 27 28 29
8 9 8 8 7 7 7 7 6 5 6 5 4 5 4 3 3 2 2 2 1 1 4 3 2 5 7 7 13 9 9 20 19 22 23 24 24 24 25 26 27 28 29
9 9 9 8 8 7 6 7 6 6 7 6 4 5 5 4 3 2 2 2 2 1 4 4 3 6 7 8 9 7 7 7 9 20 22 23 23 23 24 25 26 27 28
9 9 9 9 8 7 7 7 7 6 6 6 5 5 4 3 3 3 2 2 1 2 3 7 6 5 7 8 8 9 8 8 7 17 21 21 22 23 24 25 26 26 28
10 9 9 9 8 8 7 7 7 6 6 5 5 4 4 4 3 2 2 2 1 2 2 4 7 5 5 6 8 8 8 7 8 13 16 18 21 23 23 24 25 26 27
11 9 8 8 8 8 7 7 7 7 6 5 4 4 3 3 2 1 1 1 2 2 3 4 6 6 5 6 6 8 10 8 9 9 10 14 18 20 21 23 24 25 26
9 9 9 8 7 6 6 7 6 6 6 5 4 3 3 2 2 1 1 1 2 2 3 4 6 6 6 8 8 7 11 10 9 4 7 8 8 8 10 16 20 24 26
9 9 9 8 7 5 10 11 8 6 5 5 4 3 2 2 1 2 4 4 4 3 4 4 5 7 8 8 8 8 9 10 8 5 9 10 6 7 7 8 19 25 26
9 9 8 7 7 8 12 11 10 6 5 4 3 3 1 1 1 2 4 5 5 6 7 5 6 7 8 8 9 9 8 9 9 9 9 9 6 7 8 10 21 23 26
8 8 7 7 6 7 11 10 10 6 4 3 3 2 2 1 2 3 2 2 3 3 5 3 4 5 5 6 5 6 8 8 8 5 4 6 6 8 9 8 15 22 25
7 6 6 7 7 6 9 10 9 4 3 3 2 2 2 2 4 4 2 3 4 4 6 8 8 8 9 10 8 4 5 6 7 5 3 4 6 8 7 4 8 20 24
7 7 6 5 5 5 8 9 8 4 3 2 2 2 2 3 4 4 2 2 4 4 3 5 5 6 5 6 8 3 3 4 5 5 4 5 5 6 8 5 5 8 12
Wind_Direction
147 143 136 127 117 102 93 77 53 34 19 3 350 342 326 316 306 297 295 302 308 312 315 318 319 319 319 318 316 314 309 304 297 291 286 281 278 275 272 268 266 264 262
158 158 158 160 162 157 148 139 110 8 338 329 321 313 302 298 292 291 289 299 307 312 315 319 321 322 323 323 323 321 320 318 315 309 302 294 288 282 278 274 270 266 263
168 166 168 180 188 176 166 158 215 331 309 311 305 303 296 290 289 292 295 297 306 314 321 326 329 330 330 329 329 328 328 327 325 322 320 315 309 301 292 286 280 274 270
176 171 179 193 185 172 172 182 209 282 294 301 300 298 292 292 293 297 301 309 314 319 327 335 337 337 336 335 334 333 332 332 331 331 329 326 321 316 311 305 298 289 282
181 180 190 193 178 177 184 189 203 218 282 296 296 295 292 290 296 308 315 326 332 335 334 339 343 340 341 341 339 339 337 337 337 336 335 333 330 326 322 317 312 306 300
185 185 191 191 179 178 189 195 208 209 250 288 302 297 291 295 303 306 316 336 352 357 350 343 342 341 344 346 347 346 346 345 344 343 340 338 335 332 328 325 321 316 311
186 187 189 187 182 191 200 191 183 206 255 280 329 322 319 323 329 331 348 3 7 1 357 348 341 339 340 350 354 355 353 350 348 345 343 339 336 332 329 326 322 320 317
188 190 191 190 188 191 192 186 173 172 206 144 127 344 334 339 338 348 2 15 2 356 351 342 340 341 347 355 357 358 355 352 349 346 343 340 336 332 328 325 322 319 317
192 191 194 191 190 190 196 194 183 182 193 174 178 166 288 305 315 320 336 353 356 350 337 334 342 353 4 8 358 357 357 354 351 347 344 340 336 333 329 326 323 320 317
193 191 188 186 184 183 188 189 181 178 173 182 183 206 208 189 285 311 314 324 347 337 332 338 350 3 11 11 5 1 358 354 351 347 343 340 337 334 330 327 325 322 319
186 183 180 175 173 172 174 165 162 164 171 172 168 160 166 191 210 249 293 315 330 315 326 336 3 12 16 12 3 357 357 353 349 345 342 339 336 333 331 328 325 323 321
171 171 162 162 162 160 162 159 151 147 151 145 140 138 151 169 189 225 270 301 309 303 321 353 26 23 18 9 359 357 354 349 345 343 340 338 335 334 332 329 327 325 322
171 172 159 153 149 148 143 136 130 129 135 131 130 121 111 105 107 190 269 296 299 299 316 1 36 33 18 6 353 352 347 344 342 340 338 336 335 333 332 330 328 326 324
164 154 143 135 128 127 124 120 113 111 108 108 102 102 98 80 73 84 117 309 306 303 300 306 359 33 14 359 345 349 339 339 339 338 337 336 335 334 333 332 330 328 326
140 137 132 126 121 118 117 115 109 107 103 97 99 98 94 79 70 64 67 80 305 308 303 315 345 10 2 346 340 337 329 332 337 337 337 336 335 335 335 334 333 331 329
137 135 131 127 120 115 114 112 110 109 104 97 97 96 90 83 75 63 60 50 45 287 285 300 323 338 338 336 335 331 325 334 334 335 335 335 336 338 337 336 335 334 332
142 140 136 131 126 121 120 117 113 114 110 103 97 98 91 84 78 59 50 46 37 344 288 297 309 326 326 328 329 326 322 322 324 331 334 336 338 339 339 338 337 337 335
138 136 133 129 125 123 123 123 121 119 118 114 107 101 93 86 77 60 50 38 11 338 305 307 314 324 322 322 321 321 325 325 317 328 334 337 340 339 339 339 339 339 337
133 130 131 132 130 128 123 120 122 118 114 114 114 111 105 95 81 59 40 18 341 328 308 302 309 311 311 317 324 322 319 317 321 327 333 339 338 338 339 340 340 339 338
135 133 128 127 128 126 124 125 123 119 116 113 111 110 108 102 98 65 19 339 315 312 307 303 307 313 313 320 328 333 333 332 327 322 333 334 332 335 338 340 340 339 341
129 129 126 123 123 124 131 132 128 129 127 122 113 107 104 96 75 45 326 303 307 307 310 313 315 318 324 335 338 332 326 325 321 315 326 324 324 325 331 334 337 342 346
126 126 130 131 131 133 141 140 137 134 134 133 130 121 111 101 40 349 328 320 319 314 311 309 313 317 321 325 324 323 325 330 325 329 329 317 323 322 324 326 336 345 348
132 131 131 133 134 141 144 143 142 137 137 138 140 141 138 149 265 282 302 314 321 317 315 306 302 307 310 318 319 319 322 320 306 310 319 307 320 320 322 327 339 349 351
138 135 137 138 135 144 147 146 144 135 135 140 149 159 172 226 266 281 275 290 294 298 308 308 283 292 299 312 315 312 308 304 287 284 313 299 313 316 317 317 339 351 352
135 135 139 142 141 146 153 153 148 141 146 155 166 178 200 239 281 305 307 297 299 299 317 322 318 319 326 332 337 333 329 328 317 314 351 316 310 317 309 306 336 349 351
137 135 136 140 143 149 164 164 159 151 161 171 182 201 229 256 280 299 282 276 290 299 319 327 328 330 331 333 345 347 323 315 310 305 343 337 313 329 316 308 327 340 347